[[{"header":{"parameterUnit":"m.s-1","parameterCategory":1,"la1":30.2991,"la2":30.254,"lo1":-89.0895,"lo2":-89.0444,"dy":0.0017,"dx":0.0017,"nx":28,"ny":28,"refTime":"2024-08-17T03:00:00:Z","depth":0,"parameterNumber":2,"parameterNumberName":"U-component_of_WINDS"},"data":[0,0,0,0,0,0,0,0,0,0,0,0,0,0,0,0,0,0,0,0,0,0,0,0,0,0,0,0,0,0,0,0,0,0,0,0,0,0,0,0,0,0,0,0,0,0,0,0,0,0,0,0,0,0,0,0,0,0,2.9482,2.9483,0,2.9587,2.9588,2.9589,2.9569,2.9567,2.9565,2.9563,2.9675,2.968,2.9684,0,0,0,0,0,0,0,0,0,0,0,0,0,2.9268,2.9272,2.9481,2.9483,2.9484,2.9586,2.9588,2.9589,2.9569,2.9567,2.9565,2.9563,2.9673,2.9679,2.9685,0,0,0,0,0,0,0,0,0,0,0,0,0,2.9366,2.9274,2.9481,2.9486,2.9488,2.9586,2.9588,2.959,2.957,2.9567,2.9564,2.9562,2.9671,2.9678,2.9685,2.9786,0,0,2.9707,2.971,0,0,0,0,0,0,0,0,2.936,2.9374,2.9484,2.9486,2.9488,2.9562,2.9553,2.9656,2.9571,2.9539,2.9563,2.956,2.964,2.9649,2.9675,2.9791,2.9796,2.9708,2.9712,2.9715,2.9717,0,0,0,0,0,0,0,2.9354,2.9369,2.9523,2.9486,2.9488,2.9485,2.9496,2.9573,2.9604,2.9541,2.954,2.9553,2.964,2.9669,2.9678,2.9798,2.9708,2.9714,2.9718,2.9721,3.0003,3.0006,0,0,0,0,0,0,2.9345,2.9364,2.952,2.9526,2.9416,2.9491,2.9503,2.9541,2.9603,2.961,2.9555,2.9551,2.9658,2.967,2.9682,2.9803,2.9715,2.9722,2.9726,2.9999,3.0003,3.0007,0,0,0,0,0,0,2.934,2.9359,2.9516,2.9445,2.9464,2.9498,2.9541,2.9545,2.9573,2.9613,2.9619,2.9578,2.9656,2.9672,2.976,2.9807,2.9725,2.9731,2.9996,3.0001,3.0005,3.0048,0,0,0,0,0,0,2.9334,2.9357,2.9394,2.9446,2.9468,2.9591,2.9543,2.9549,2.9585,2.9581,2.9636,2.9643,2.9655,2.975,2.9767,2.9815,2.9737,2.9992,2.9998,3.0004,3.0042,3.0053,3.0063,0,0,0,0,0,2.9327,2.9403,2.9396,2.9415,2.9515,2.9593,2.9607,2.9618,2.9588,2.9627,2.9653,2.9641,2.98,2.9759,2.9779,2.9829,2.9989,2.9996,3.0003,3.0038,3.0051,3.0063,0,0,0,0,0,0,2.9357,2.941,2.9403,2.9498,2.9541,2.959,2.9638,2.9632,2.9685,2.968,2.9693,2.9706,2.9796,2.9822,2.9776,2.9931,2.989,2.9902,2.991,2.9923,2.9933,2.9924,2.9743,0,0,0,0,0,2.9375,2.9432,2.9476,2.9556,2.9578,2.9605,2.9639,2.9644,2.969,2.9709,2.9742,2.9788,2.9848,2.9887,2.9945,3.0047,3.0059,3.0092,3.0102,3.011,3.012,3.0176,3.0191,3.0031,3.0031,3.0031,0,0,2.9412,2.9448,2.9484,2.9563,2.9597,2.9658,2.962,2.9686,2.9731,2.9719,2.9804,2.983,2.9883,2.9978,3.0022,3.0003,3.0167,3.012,3.0126,3.0131,3.0185,3.02,3.0213,3.0036,3.0035,3.0034,0,0,2.951,2.9543,2.9613,2.9648,2.97,2.9718,2.9735,2.9786,2.9802,2.9887,2.988,2.9935,3.0039,3.0076,3.0109,3.0225,3.0215,3.0243,3.0297,3.0351,3.0364,3.0375,3.0415,3.043,3.0253,3.0253,3.0253,0,2.955,2.9639,2.965,2.9717,2.9752,2.9744,2.9815,2.985,2.9919,2.9944,2.9922,3.0052,3.0087,3.0191,3.0219,3.0246,3.0267,3.0236,3.0361,3.0372,3.0383,3.0422,3.0437,3.0256,3.0256,3.0255,3.0255,0,2.9685,2.9748,2.9799,2.9864,2.9906,2.9975,2.9998,3.0039,3.0042,3.0062,3.015,3.0192,3.0258,3.0284,3.0287,3.039,3.0376,3.0357,3.0316,3.0401,3.0437,3.0453,3.026,3.0259,3.0258,3.0258,0,0,2.9803,2.9875,2.9893,2.9923,2.9981,3.003,3.01,3.0164,3.0199,3.0248,3.0307,3.0396,3.0379,3.0417,3.0425,3.0473,3.0561,3.0449,3.045,3.0467,3.0676,3.0688,3.0705,3.0556,3.0559,3.0562,3.0671,0,2.9905,3.0026,3.0039,3.0147,3.0206,3.02,3.0261,3.0304,3.0327,3.0381,3.0406,3.0468,3.0442,3.0464,3.0512,3.054,3.0603,3.0533,3.0612,3.0614,3.0596,3.0724,3.0737,3.0838,3.0686,3.0688,3.069,0,3.004,3.0091,3.0205,3.0256,3.0282,3.0336,3.0396,3.0448,3.0497,3.051,3.0553,3.0555,3.0629,3.0587,3.0689,3.0641,3.0674,3.0694,3.0698,3.0704,3.0655,3.0732,3.0871,3.0885,3.0713,3.0711,3.0709,0,3.0112,3.0211,3.0292,3.0318,3.038,3.0418,3.0446,3.0493,3.0531,3.0585,3.0609,3.0672,3.0705,3.0754,3.0774,3.0741,3.0875,3.0834,3.0887,3.0887,3.0913,3.0911,3.1057,3.0939,3.0938,3.0938,3.0938,0,3.0224,3.0294,3.0325,3.0375,3.0454,3.047,3.0547,3.0574,3.0616,3.0672,3.0672,3.0725,3.0748,3.0805,3.0822,3.0904,3.0919,3.0932,3.0935,3.0931,3.0929,3.0951,3.0944,3.0942,3.0941,3.094,3.094,0,3.0317,3.0341,3.0429,3.0481,3.0495,3.0551,3.0596,3.0645,3.0667,3.0738,3.0756,3.0791,3.0858,3.0883,3.0966,3.0977,3.1071,3.1069,3.1053,3.1054,3.1105,3.1099,3.1269,3.1292,3.116,3.1161,3.1162,0,3.0385,3.0439,3.0497,3.0533,3.0562,3.0622,3.0661,3.068,3.072,3.0782,3.0824,3.0891,3.0944,3.1052,3.1086,3.115,3.1149,3.1204,3.1158,3.1152,3.1148,3.1143,3.1149,3.1212,3.1213,3.1214,3.1215,0,3.0504,3.0514,3.0569,3.0629,3.0675,3.0724,3.0771,3.0801,3.0828,3.0874,3.0942,3.0984,3.1068,3.1134,3.12,3.123,3.1227,3.123,3.1245,3.124,3.1228,3.1234,3.1075,3.1225,3.1224,3.1223,3.1223,3.1222,3.0586,3.0633,3.0681,3.0743,3.0781,3.0825,3.0874,3.0902,3.0959,3.1028,3.1037,3.111,3.1161,3.1248,3.1281,3.134,3.1325,3.1348,3.1353,3.1358,3.1361,3.122,3.1352,3.1352,3.1352,3.1352,3.1351,0,3.0703,3.0734,3.0791,3.0857,3.0906,3.09,3.0952,3.0994,3.1058,3.1105,3.1158,3.1237,3.1302,3.1342,3.1408,3.1447,3.1448,3.1464,3.146,3.1467,3.1371,3.135,3.1462,3.1462,3.1462,3.1462,3.1462,3.1462,3.0769,3.0849,3.0865,3.0964,3.0995,3.1066,3.1097,3.1138,3.1176,3.1264,3.1317,3.1343,3.1388,3.1457,3.1517,3.1527,3.155,3.1568,3.1576,3.1485,3.1474,3.1463,3.1443,3.1573,3.1573,3.1667,3.1668,3.1669]},{"header":{"parameterUnit":"m.s-1","parameterCategory":1,"la1":30.2991,"la2":30.254,"lo1":-89.0895,"lo2":-89.0444,"dy":0.0017,"dx":0.0017,"nx":28,"ny":28,"refTime":"2024-08-17T03:00:00:Z","depth":0,"parameterNumber":3,"parameterNumberName":"V-component_of_WINDS"},"data":[0,0,0,0,0,0,0,0,0,0,0,0,0,0,0,0,0,0,0,0,0,0,0,0,0,0,0,0,0,0,0,0,0,0,0,0,0,0,0,0,0,0,0,0,0,0,0,0,0,0,0,0,0,0,0,0,0,0,5.2208,5.221,0,5.2439,5.2441,5.2444,5.2458,5.2456,5.2453,5.2451,5.2678,5.2686,5.2694,0,0,0,0,0,0,0,0,0,0,0,0,0,5.177,5.1778,5.2208,5.2211,5.2214,5.2438,5.2441,5.2444,5.2459,5.2456,5.2452,5.245,5.2675,5.2685,5.2695,0,0,0,0,0,0,0,0,0,0,0,0,0,5.1976,5.1781,5.2207,5.2248,5.2254,5.2438,5.2441,5.2445,5.2459,5.2456,5.2452,5.2448,5.2672,5.2684,5.2696,5.2852,0,0,5.2735,5.2741,0,0,0,0,0,0,0,0,5.1965,5.1992,5.2239,5.2246,5.2253,5.2416,5.237,5.2581,5.246,5.2381,5.2451,5.2446,5.2593,5.2612,5.2663,5.2863,5.2873,5.2736,5.2744,5.2749,5.2753,0,0,0,0,0,0,0,5.195,5.1982,5.2299,5.2243,5.2251,5.2252,5.2277,5.241,5.2506,5.2388,5.2389,5.2417,5.2596,5.2651,5.2669,5.2876,5.2736,5.2747,5.2755,5.276,5.3213,5.3217,0,0,0,0,0,0,5.1929,5.197,5.2291,5.2306,5.2096,5.2263,5.2291,5.2367,5.2504,5.2522,5.242,5.2417,5.2631,5.2654,5.2677,5.2868,5.2749,5.2761,5.2768,5.3209,5.3214,5.3219,0,0,0,0,0,0,5.192,5.1958,5.2282,5.2139,5.218,5.2274,5.236,5.2374,5.2429,5.2529,5.2545,5.246,5.2629,5.2659,5.2809,5.2876,5.2767,5.2778,5.3203,5.321,5.3216,5.3251,0,0,0,0,0,0,5.1907,5.1955,5.2017,5.214,5.2188,5.2413,5.2364,5.2381,5.2452,5.245,5.257,5.2586,5.2629,5.279,5.2822,5.2891,5.2788,5.3198,5.3206,5.3214,5.3244,5.3258,5.327,0,0,0,0,0,5.1892,5.2016,5.202,5.2059,5.2268,5.2417,5.2444,5.2493,5.2458,5.252,5.2583,5.2583,5.2864,5.2805,5.2841,5.2916,5.3194,5.3204,5.3214,5.3239,5.3256,5.327,0,0,0,0,0,0,5.1895,5.2033,5.2039,5.2207,5.2301,5.242,5.25,5.2509,5.2612,5.2605,5.2658,5.2685,5.2833,5.2889,5.2822,5.3073,5.3024,5.3042,5.3031,5.3048,5.306,5.3043,5.2799,0,0,0,0,0,5.1916,5.2029,5.2141,5.2279,5.2326,5.2405,5.2471,5.2501,5.2598,5.2637,5.2712,5.2804,5.2913,5.2983,5.3089,5.3252,5.3278,5.3321,5.3334,5.3344,5.3358,5.3447,5.3467,5.3251,5.3251,5.3251,0,0,5.1959,5.2048,5.2116,5.2282,5.2358,5.247,5.2438,5.2558,5.2641,5.2654,5.2801,5.2859,5.2965,5.3122,5.3195,5.3173,5.3423,5.3356,5.3364,5.3373,5.3459,5.348,5.3498,5.3258,5.3257,5.3256,0,0,5.2096,5.2175,5.2298,5.2376,5.2492,5.2544,5.2573,5.2691,5.273,5.2879,5.2891,5.2989,5.3176,5.3251,5.3313,5.3477,5.348,5.351,5.3576,5.3663,5.368,5.3695,5.3753,5.3773,5.3524,5.3524,5.3524,0,5.2134,5.2307,5.2359,5.2481,5.2552,5.2572,5.2696,5.2767,5.291,5.2958,5.2932,5.3167,5.324,5.3414,5.3454,5.3505,5.3538,5.3497,5.3674,5.3689,5.3704,5.376,5.3781,5.3527,5.3527,5.3526,5.3526,0,5.2347,5.2467,5.2552,5.2694,5.2775,5.2896,5.2964,5.3039,5.3061,5.3114,5.3264,5.3352,5.3476,5.3519,5.3541,5.3697,5.3679,5.3663,5.3615,5.3727,5.378,5.3802,5.3531,5.353,5.3529,5.3528,0,0,5.2492,5.2662,5.2692,5.2757,5.2886,5.2978,5.3099,5.3223,5.3286,5.3383,5.3485,5.3642,5.3628,5.3699,5.3729,5.3805,5.3928,5.3779,5.3782,5.3803,5.4103,5.4114,5.4138,5.393,5.3934,5.3938,5.4094,0,5.2643,5.2863,5.2913,5.31,5.321,5.323,5.3335,5.3424,5.3477,5.3575,5.3631,5.3743,5.3716,5.3759,5.3835,5.3897,5.3988,5.3886,5.4022,5.4026,5.3995,5.4166,5.4179,5.4322,5.4115,5.4118,5.4121,0,5.2848,5.2954,5.3153,5.3268,5.3316,5.341,5.3527,5.3622,5.3722,5.3754,5.3834,5.3856,5.3979,5.3926,5.4095,5.4024,5.4082,5.4121,5.4127,5.4142,5.408,5.4184,5.4369,5.439,5.4154,5.4151,5.4149,0,5.2933,5.3124,5.3269,5.3323,5.3461,5.3526,5.3586,5.3683,5.3754,5.3855,5.3901,5.4014,5.4075,5.4161,5.4211,5.4168,5.4376,5.4327,5.4404,5.4403,5.4447,5.4444,5.4643,5.4485,5.4485,5.4485,5.4484,0,5.3095,5.3216,5.3309,5.3397,5.3532,5.3587,5.3718,5.3777,5.3863,5.3961,5.3984,5.4075,5.4137,5.4235,5.4275,5.4408,5.4435,5.4463,5.4472,5.4462,5.4458,5.45,5.4491,5.449,5.4489,5.4488,5.4487,0,5.3212,5.328,5.3438,5.3556,5.3589,5.3683,5.3782,5.3867,5.392,5.4044,5.4076,5.4158,5.4275,5.4335,5.4479,5.4506,5.4656,5.4659,5.4623,5.4627,5.4701,5.4693,5.4935,5.4969,5.4788,5.479,5.4791,0,5.3311,5.3405,5.3534,5.3603,5.3666,5.3776,5.3849,5.3906,5.3981,5.4102,5.4172,5.4291,5.4389,5.4574,5.4645,5.4755,5.4761,5.4838,5.4777,5.4763,5.4761,5.4755,5.4764,5.4848,5.485,5.4851,5.4853,0,5.348,5.3509,5.3615,5.3734,5.3822,5.3917,5.4011,5.4065,5.4136,5.4218,5.434,5.4417,5.4566,5.4683,5.4799,5.4856,5.4866,5.4871,5.4895,5.4885,5.486,5.4874,5.4652,5.4865,5.4864,5.4863,5.4862,5.4862,5.3591,5.3675,5.3779,5.3897,5.3974,5.4061,5.4147,5.4212,5.4316,5.4444,5.447,5.4599,5.4694,5.4852,5.4913,5.5012,5.4995,5.503,5.5038,5.5046,5.5049,5.4845,5.5033,5.5033,5.5033,5.5032,5.5032,0,5.376,5.3828,5.3936,5.4068,5.416,5.4164,5.4268,5.4343,5.4458,5.4548,5.4645,5.4784,5.4897,5.4977,5.5092,5.5156,5.5163,5.5184,5.5179,5.5192,5.5058,5.5026,5.5176,5.5176,5.5176,5.5176,5.5176,5.5176,5.3858,5.4001,5.4042,5.4222,5.4289,5.4418,5.4477,5.4556,5.4629,5.4784,5.488,5.4932,5.5018,5.5139,5.5242,5.5262,5.5303,5.5324,5.5344,5.5217,5.5202,5.5187,5.5157,5.5333,5.5333,5.547,5.5471,5.5472]}]]